Regional Weather Roundup
Issued by NWS

Home | Current Version | Previous Version | Graphics & Text | Print | Product List | Glossary On
Versions: 1 2 3 4 5 6 7 8 9 10 11 12 13 14 15 16 17 18 19 20 21 22 23 24 25 26 27 28 29 30 31 32 33 34 35 36 37 38 39 40 41 42 43 44 45 46 47 48 49 50
000
ASUS43 KFSD 301202
RWRSD

WEATHER ROUNDUP FOR SOUTH DAKOTA
NATIONAL WEATHER SERVICE SIOUX FALLS SD
700 AM CDT THU MAR 30 2017

NOTE: "FAIR" INDICATES FEW OR NO CLOUDS BELOW 12,000 FEET WITH NO
SIGNIFICANT WEATHER AND/OR OBSTRUCTIONS TO VISIBILITY.


SDZ001>005-009-010-012>017-301300-
NORTHWEST AND NORTH CENTRAL SOUTH DAKOTA

CITY           SKY/WX    TMP DP  RH WIND       PRES   REMARKS
BUFFALO          N/A     42  39  89 S7        29.70S
FAITH            N/A     33  33 100 MISG      29.80F
MOBRIDGE       CLEAR     32  28  85 SE9       29.85F WCI  24
$$

SDZ012>016-024>037-041>051-057-063-072>074-301300-
SOUTHWEST AND SOUTH CENTRAL SOUTH DAKOTA

CITY           SKY/WX    TMP DP  RH WIND       PRES   REMARKS
RAPID CTY ARPT PTCLDY    34  33  96 SE6       29.77F WCI  29
PIERRE         CLOUDY    34  33  96 SE3       29.87S
CUSTER         CLOUDY    34  31  88 NW5       29.79F WCI  30
ELLSWORTH AFB  CLOUDY    36  36 100 CALM      29.76F
PHILIP         FOG       30  30 100 E6        29.84F VSB 1/4 WCI  24
PINE RIDGE     CLOUDY    29  29 100 CALM      29.80F FOG
SPEARFISH      FAIR      41  34  75 S7        29.76F
WINNER         CLOUDY    39  36  89 NE3       29.87S
$$

SDZ004>011-016>023-039-040-301300-
NORTHEAST SOUTH DAKOTA

CITY           SKY/WX    TMP DP  RH WIND       PRES   REMARKS
ABERDEEN       PTCLDY    30  27  88 E8        29.92F WCI  22
WATERTOWN      CLOUDY    37  35  92 E8        29.89F
BROOKINGS      CLOUDY    37  34  89 NE10      29.88F
SISSETON         N/A     39  38  96 SE8       29.92F
$$

SDZ017-020-022-023-036>040-048>070-301300-
SOUTHEAST SOUTH DAKOTA

CITY           SKY/WX    TMP DP  RH WIND       PRES   REMARKS
SIOUX FALLS    DRIZZLE   39  37  92 NE15      29.86S
HURON          MOCLDY    38  36  92 E8        29.89F
CHAMBERLAIN    CLOUDY    40  38  95 NE3       29.88S
MITCHELL       CLOUDY    40  36  86 NE10      29.89F
YANKTON        CLOUDY    39  36  87 N12G17    29.85S
$$

ABBREVIATIONS USED IN REMARKS
   TC - TEMPERATURE IN CELSIUS
  WCI - WIND CHILL INDEX
   HX - HEAT INDEX
  VSB - VISIBILITY




USA.gov is the U.S. government's official web portal to all federal, state and local government web resources and services.